CW9119 Weather Reports


Display with metric or nautical units.
time (UTC)temp
F
wind
direction
speed
MPH
gust
MPH
rain 1hr
in
rain 24hr
in
rain mn
in
humidity
%
barometer
mb
20260831115112 60 180 0.0 1.0 0.00 0.41 0.41 94 1013.8
20260831111112 60 179 0.0 0.0 0.00 0.41 0.41 94 1013.8
20260831104112 60 141 0.0 5.0 0.00 0.41 0.41 94 1013.8
20260831100112 60 60 0.0 0.0 0.00 0.41 0.41 95 1013.9
20260831093112 60 60 0.0 0.0 0.01 0.41 0.41 95 1013.5
20260831092111 59 60 0.0 0.0 0.02 0.41 0.41 94 1013.5
20260831081111 58 59 0.0 0.0 0.36 0.36 0.36 93 1013.8
20260831074111 58 340 2.0 14.0 0.18 0.18 0.18 93 1014.3
20260831071111 57 87 0.0 0.0 0.00 0.00 0.00 93 1012.7
20260831070110 56 87 0.0 0.0 0.00 0.00 0.00 93 1012.8
20260831065110 56 87 0.0 0.0 0.00 0.00 0.00 93 1013.0
20260831062110 55 87 0.0 0.0 0.00 0.00 0.00 93 1013.2
20260831061110 54 87 0.0 0.0 0.00 0.00 0.00 93 1013.4
20260831055110 53 87 0.0 0.0 0.00 0.00 0.00 93 1013.3
20260831051110 52 96 0.0 0.0 0.00 0.00 0.00 93 1013.4
20260831050110 52 96 0.0 0.0 0.00 0.00 0.00 92 1013.5
20260831045110 52 96 0.0 0.0 0.00 0.00 0.00 92 1013.7
20260831041109 52 96 0.0 0.0 0.00 0.00 0.00 92 1013.5
20260831040109 52 96 0.0 0.0 0.00 0.00 0.00 91 1013.4
20260831035109 52 96 0.0 0.0 0.00 0.00 0.00 92 1013.6
20260831034109 52 96 0.0 0.0 0.00 0.00 0.00 91 1013.5
20260831033109 52 96 0.0 0.0 0.00 0.00 0.00 92 1013.7
20260831031109 53 96 0.0 0.0 0.00 0.00 0.00 92 1014.0
20260831025109 52 96 0.0 0.0 0.00 0.00 0.00 92 1014.1
20260831023109 52 96 0.0 0.0 0.00 0.00 0.00 92 1014.3
20260831022108 52 96 0.0 0.0 0.00 0.00 0.00 91 1014.2
20260831015109 53 96 0.0 0.0 0.00 0.00 0.00 91 1014.5
20260831011111 53 96 0.0 0.0 0.00 0.00 0.00 91 1014.6
20260831001111 54 96 0.0 0.0 0.00 0.00 0.00 90 1014.8
20260831000111 54 96 0.0 0.0 0.00 0.00 0.00 90 1014.8
20260830235110 54 96 0.0 0.0 0.00 0.00 0.00 89 1014.8
20260830232110 54 96 0.0 0.0 0.00 0.00 0.00 89 1014.9
20260830231110 55 96 0.0 0.0 0.00 0.00 0.00 89 1015.0
20260830225110 55 96 0.0 0.0 0.00 0.00 0.00 88 1014.8
20260830224110 55 96 0.0 0.0 0.00 0.00 0.00 88 1014.9
20260830222110 56 96 0.0 0.0 0.00 0.00 0.00 87 1015.1
20260830221110 56 96 0.0 0.0 0.00 0.00 0.00 86 1015.3
20260830220110 56 96 0.0 0.0 0.00 0.00 0.00 86 1015.3
20260830211109 58 96 0.0 0.0 0.00 0.00 0.00 84 1015.2
20260830210109 58 96 0.0 0.0 0.00 0.00 0.00 84 1015.2
20260830204109 59 96 0.0 0.0 0.00 0.00 0.00 83 1015.0
20260830203109 59 96 0.0 0.0 0.00 0.00 0.00 81 1015.0
20260830201109 60 96 0.0 0.0 0.00 0.00 0.00 80 1014.9
20260830194109 61 96 0.0 0.0 0.00 0.00 0.00 79 1014.8
20260830193109 61 96 0.0 0.0 0.00 0.00 0.00 78 1014.7
20260830191109 62 96 0.0 0.0 0.00 0.00 0.00 76 1014.4
20260830185113 63 96 0.0 0.0 0.00 0.00 0.00 72 1014.1
20260830184113 64 96 0.0 0.0 0.00 0.00 0.00 70 1014.2
20260830183112 65 96 0.0 0.0 0.00 0.00 0.00 70 1014.2
20260830171112 69 96 0.0 0.0 0.00 0.00 0.00 63 1013.7
20260830170112 70 96 0.0 0.0 0.00 0.00 0.00 61 1013.8
20260830165112 70 96 0.0 0.0 0.00 0.00 0.00 61 1013.9
20260830163112 71 96 0.0 1.0 0.00 0.00 0.00 59 1013.7
20260830161111 71 88 0.0 1.0 0.00 0.00 0.00 58 1013.7
20260830160111 71 87 0.0 4.0 0.00 0.00 0.00 58 1013.7
20260830154111 71 118 0.0 6.0 0.00 0.00 0.00 56 1013.7
20260830151111 72 113 1.0 7.0 0.00 0.00 0.00 54 1014.1
20260830150111 72 69 1.0 5.0 0.00 0.00 0.00 57 1014.0
20260830145111 72 150 1.0 6.0 0.00 0.00 0.00 60 1014.1
20260830135111 74 123 1.0 7.0 0.00 0.00 0.00 58 1013.8
20260830134111 75 95 1.0 6.0 0.00 0.00 0.00 60 1014.1
20260830133110 74 163 2.0 10.0 0.00 0.00 0.00 59 1013.9
20260830132110 74 134 2.0 12.0 0.00 0.00 0.00 57 1014.0
20260830130110 73 167 2.0 14.0 0.00 0.00 0.00 63 1014.0
20260830125110 73 156 1.0 7.0 0.00 0.00 0.00 62 1014.0
20260830123110 71 127 2.0 8.0 0.00 0.00 0.00 68 1014.0
20260830122110 71 144 1.0 7.0 0.00 0.00 0.00 67 1013.8